Flight Track Log - Related Links

Times and Time Zones

All times are in EDT time to prevent confusion due to time zone crossing. See the SWA2353 flight status page for this flight to view local times or setup timezone preferences in your user account.

Time Position Orientation Groundspeed Altitude Reporting Facility
EDT Latitude Longitude Course Direction KTS MPH feet Rate Location/Type
Fri 09:33:44 PM 41.5911 -87.9042 209° Southwest 287 330 8,000  Level Chicago Center
Fri 09:34:46 PM 41.5194 -87.9528 207° Southwest 289 333 9,200 1,935 Climbing Chicago Center
Fri 09:35:48 PM 41.4425 -88.0053 207° Southwest 302 348 12,000 2,976 Climbing Chicago Center
Fri 09:36:49 PM 41.3400 -88.0528 199° South 378 435 15,300 3,317 Climbing Chicago Center
Fri 09:37:51 PM 41.2347 -88.0861 193° South 387 445 18,800 3,435 Climbing Chicago Center
Fri 09:38:53 PM 41.1025 -88.1022 185° South 400 460 22,400 2,927 Climbing Chicago Center
Fri 09:39:54 PM 40.9883 -88.1161 185° South 410 472 24,800 1,756 Climbing Chicago Center
Fri 09:40:56 PM 40.8753 -88.1661 198° South 423 487 26,000 585 Climbing Chicago Center
Fri 09:41:57 PM 40.7633 -88.2297 203° Southwest 439 505 26,000  Level Chicago Center
Fri 09:42:59 PM 40.6506 -88.2944 204° Southwest 441 507 26,000  Level Chicago Center
Fri 09:44:00 PM 40.5386 -88.3575 203° Southwest 440 506 26,000  Level Chicago Center
Fri 09:45:02 PM 40.4253 -88.4211 203° Southwest 443 510 26,000  Level Chicago Center
Fri 09:46:03 PM 40.3128 -88.4861 204° Southwest 444 511 26,000  Level Chicago Center
Fri 09:47:05 PM 40.1914 -88.5803 211° Southwest 436 502 26,000  Level Chicago Center
Fri 09:48:01 PM 40.1094 -88.6514 214° Southwest 432 497 26,000  Level Kansas City Center
Fri 09:49:02 PM 40.0103 -88.7372 214° Southwest 428 493 26,000  Level Kansas City Center
Fri 09:50:04 PM 39.9119 -88.8225 214° Southwest 425 489 26,000  Level Kansas City Center
Fri 09:51:05 PM 39.7911 -88.9244 213° Southwest 428 493 26,000  Level Kansas City Center
Fri 09:52:06 PM 39.6903 -89.0106 213° Southwest 431 496 26,000  Level Kansas City Center
Fri 09:53:08 PM 39.5889 -89.0969 213° Southwest 434 499 26,000  Level Kansas City Center
Fri 09:54:09 PM 39.4869 -89.1844 214° Southwest 436 502 26,000 -1,317 Level Kansas City Center
Fri 09:55:11 PM 39.3836 -89.2697 213° Southwest 433 498 23,300 -2,829 Descending Kansas City Center
Fri 09:56:12 PM 39.2869 -89.3508 213° Southwest 420 483 20,200 -2,951 Descending Kansas City Center
Fri 09:57:13 PM 39.1931 -89.4297 213° Southwest 407 468 17,300 -3,098 Descending Kansas City Center
Fri 09:58:14 PM 39.0919 -89.5147 213° Southwest 390 449 13,900 -2,390 Descending Kansas City Center
Fri 09:59:16 PM 39.0064 -89.5856 213° Southwest 361 415 12,400 -1,805 Descending Kansas City Center
Fri 10:00:17 PM 38.9336 -89.6722 223° Southwest 333 383 10,200 -1,230 Descending Kansas City Center
Fri 10:01:18 PM 38.8828 -89.7364 225° Southwest 323 372 9,900 -836 Descending Kansas City Center
Fri 10:02:19 PM 38.8164 -89.8222 225° Southwest 293 337 8,500 -1,366 Descending Kansas City Center
Fri 10:03:21 PM 38.7622 -89.8886 224° Southwest 278 320 7,100 -1,463 Descending Kansas City Center
Fri 10:04:22 PM 38.7083 -89.9575 225° Southwest 274 315 5,500 -1,475 Descending Kansas City Center
Fri 10:05:23 PM 38.6614 -90.0322 231° Southwest 272 313 4,100 -1,033 Descending Kansas City Center
Fri 10:06:24 PM 38.6314 -90.1092 243° Southwest 252 290 3,400 -295 Descending Kansas City Center
Fri 10:07:25 PM 38.6561 -90.1731 296° West 224 258 3,500 -390 Climbing Kansas City Center
Fri 10:08:27 PM 38.6825 -90.2261 303° West 197 227 2,600 -780 Descending Kansas City Center
Fri 10:09:28 PM 38.7028 -90.2661 303° West 160 184 1,900 -689 Descending Kansas City Center
Fri 10:10:29 PM 38.7206 -90.3028 302° West 132 152 1,200 -689 Descending Kansas City Center
Fri 10:11:30 PM 38.7389 -90.3406 302° West 128 147 500 -689 Descending Kansas City Center

Login

Don't have an account? Register now (free) for customized features, flight alerts, and more!